SCP
0 0 0 0 0 0 0 0 0 0 0 0 0 0 0 0 0 0 0 1 1 1 1 1 1 1 1 1 1 1 1 1 1 1 1 1 1 0 0 0 0 0 0
0 0 0 0 0 0 0 0 0 0 0 0 0 0 0 0 0 0 0 0 1 1 1 1 1 1 1 1 1 1 1 1 1 1 1 1 1 1 1 1 0 0 0
0 0 0 0 0 0 0 0 0 0 0 0 0 0 0 0 0 0 0 0 0 0 0 0 1 1 1 1 1 1 1 1 1 1 1 1 1 1 1 1 1 1 0
0 0 0 0 0 0 0 0 0 0 0 0 0 0 0 0 0 0 0 0 0 0 0 0 0 1 1 0 0 0 1 1 1 1 1 1 1 1 1 1 1 1 1
0 0 0 0 0 0 0 0 0 0 0 0 0 0 0 0 0 0 0 0 0 0 0 0 0 0 0 0 1 1 1 1 1 1 1 1 1 1 1 1 1 1 1
0 0 0 0 0 0 0 0 0 0 0 0 0 0 0 0 0 0 0 0 0 0 0 0 0 0 0 0 1 1 1 1 1 1 1 1 1 1 1 1 1 1 1
0 0 0 0 0 0 0 0 0 0 0 0 0 0 0 0 0 0 0 0 0 0 0 0 0 0 0 0 1 1 1 1 1 1 1 1 1 1 1 1 1 1 1
0 0 0 0 0 0 0 0 0 0 0 0 0 0 0 0 0 0 0 0 0 0 0 0 0 0 0 0 0 1 1 1 1 1 1 1 1 1 1 1 1 1 1
0 0 0 0 0 0 0 0 0 0 0 0 0 0 0 0 0 0 0 0 0 0 0 0 0 0 0 0 0 0 1 1 1 1 1 1 1 1 1 1 1 1 1
0 0 0 0 0 0 0 0 0 0 0 0 0 0 0 0 0 0 0 0 0 0 0 0 0 0 0 0 0 0 0 0 0 0 0 1 1 1 1 1 1 1 1
0 0 0 0 0 0 0 0 0 0 0 0 0 0 0 0 0 0 0 0 0 0 0 0 0 0 0 0 0 0 0 0 0 0 0 0 0 0 0 1 1 1 1
0 0 0 0 0 0 0 0 0 0 0 0 0 0 0 0 0 0 0 0 0 0 0 0 0 0 0 0 0 0 0 0 0 0 0 0 0 0 0 0 0 1 1
-0 0 0 0 0 0 0 0 0 0 0 0 0 0 0 0 0 0 0 0 0 0 0 0 0 0 0 0 0 0 0 0 0 0 0 0 0 0 0 0 0 0 0
-0 -0 0 0 0 0 0 0 0 0 0 0 0 0 0 0 -0 0 0 0 0 0 0 0 0 0 0 0 0 0 0 0 0 0 0 0 0 0 0 0 0 0 0
-0 -0 0 0 0 0 0 0 0 0 0 0 0 0 0 0 0 0 0 0 0 0 0 0 0 0 0 0 0 0 0 0 0 0 0 0 0 0 0 0 0 0 0
-0 -0 0 0 0 0 0 0 0 0 0 0 0 0 0 0 0 0 0 0 0 0 0 0 0 0 0 0 0 0 0 0 0 0 0 0 0 0 0 0 0 0 0
-0 -0 -0 0 0 0 0 0 0 0 0 0 0 0 0 0 0 0 0 0 0 0 0 0 0 0 0 0 0 0 0 0 0 0 0 0 0 0 0 0 0 0 0
-0 -0 -0 -0 0 0 0 0 0 0 0 0 0 0 0 0 0 0 0 0 0 0 -0 -0 -0 -0 0 0 0 0 0 0 0 0 0 0 0 0 0 0 0 0 0
-0 -0 -0 -0 0 0 0 0 0 0 0 0 0 0 0 0 0 0 0 0 0 0 -0 -0 -0 -0 0 0 0 0 0 0 0 0 0 0 0 0 0 0 0 0 0
-0 -0 -0 -0 -0 0 0 -0 -0 -0 0 0 0 0 0 0 0 0 0 0 0 0 -0 -0 -0 0 0 0 0 0 0 0 0 -0 -0 -0 -0 -0 0 0 0 0 0
-0 -0 -0 -0 -0 -0 0 -0 -0 -0 -0 -0 -0 -0 -0 -0 -0 -0 0 0 0 0 0 -0 0 0 0 0 0 0 0 0 0 0 0 0 0 0 0 0 0 0 0
-0 -0 -0 -0 -0 -0 0 0 -0 -0 -0 -0 -0 -0 -0 -0 -0 -0 -0 -0 -0 -0 -0 -0 -0 0 0 0 0 0 0 0 0 0 0 0 0 0 0 0 0 0 0
-0 -0 -0 -0 -0 0 0 0 -0 -0 -0 -0 -0 -0 -0 -0 -0 -0 -0 -0 -0 -0 -0 -0 -0 -0 -0 0 0 0 0 0 0 0 0 0 0 0 0 0 0 0 0
0 0 0 0 0 0 0 0 0 -0 -0 -0 -0 -0 -0 -0 -0 -0 -0 -0 -0 -0 -0 -0 -0 -0 -0 0 0 0 0 0 0 0 0 0 0 0 0 0 0 0 0
0 0 0 0 0 0 0 0 0 0 -0 -0 -0 -0 -0 -0 -0 -0 -0 -0 -0 -0 -0 -0 -0 -0 -0 0 0 0 0 0 0 0 0 0 0 0 0 0 0 0 0
0 0 0 0 0 0 0 0 0 0 0 0 -0 -0 -0 -0 -0 -0 -0 -0 -0 -0 -0 -0 -0 0 0 0 0 0 0 0 0 0 0 0 0 0 0 0 0 0 0
Wind_Speed
4 3 2 2 2 2 2 2 1 1 1 1 1 2 3 3 3 4 3 10 11 11 12 12 12 12 12 12 11 11 11 11 10 9 9 10 10 10 10 10 9 9 8
5 4 3 2 2 2 2 2 1 1 1 1 1 1 2 3 3 4 3 6 11 11 11 12 12 12 12 12 12 11 12 11 11 10 10 10 10 10 10 10 10 9 9
5 4 3 3 2 2 2 2 2 1 1 1 1 1 0 2 3 4 4 3 4 9 11 11 11 11 12 12 12 12 12 11 11 11 11 10 10 10 10 10 10 10 9
6 5 4 3 3 2 2 2 2 1 1 1 0 1 0 0 2 3 3 3 3 3 6 10 10 9 11 12 12 12 12 11 11 12 12 12 11 11 11 11 10 10 10
6 5 4 3 3 3 2 2 2 1 1 0 1 0 0 0 1 2 3 3 3 3 3 5 8 8 9 10 11 11 12 12 11 12 13 13 13 12 12 12 11 11 11
6 5 3 3 4 3 2 2 2 1 1 0 1 1 1 1 0 1 2 2 2 3 3 3 3 4 8 8 8 9 10 10 11 12 12 13 12 12 12 12 12 12 12
5 5 4 4 4 3 3 3 2 2 1 1 2 3 3 2 1 0 1 1 1 2 2 2 2 1 2 4 5 6 8 9 9 9 10 11 12 12 12 12 13 13 13
5 5 5 4 4 3 3 2 2 2 1 2 2 2 3 4 3 2 1 1 1 1 2 2 2 2 1 1 1 4 5 6 7 7 7 8 9 10 11 12 12 13 13
5 5 6 5 4 4 3 3 3 3 1 1 1 3 3 2 2 3 2 1 0 1 0 1 1 1 2 1 1 2 2 3 4 5 5 5 6 7 8 10 12 12 13
5 5 6 5 5 4 4 3 3 2 3 1 1 1 2 3 3 1 3 3 2 0 0 0 1 1 1 2 2 2 3 2 3 3 3 4 5 6 7 9 11 11 12
4 5 5 5 5 4 4 4 3 3 2 2 1 1 2 2 2 3 0 3 3 2 1 1 1 1 1 2 2 3 4 3 2 2 2 3 3 4 5 7 9 11 11
3 4 5 5 5 4 4 4 4 4 3 3 2 2 2 2 1 2 2 1 2 3 2 1 1 1 1 2 3 5 5 4 4 3 3 3 4 4 5 6 8 10 11
3 4 5 5 4 4 4 4 4 4 4 3 3 2 2 2 2 3 3 1 1 3 3 2 2 1 2 2 2 5 5 5 5 5 5 5 5 6 7 7 8 9 10
4 5 5 5 5 5 5 4 3 3 3 3 3 2 2 1 2 2 3 3 1 2 3 3 2 1 1 1 3 5 3 6 6 7 7 8 8 8 8 8 9 9 10
5 6 6 6 5 5 5 5 3 3 3 3 3 2 2 1 1 1 2 3 4 1 2 3 2 2 2 1 3 3 3 7 8 9 9 10 10 10 10 10 10 9 9
6 7 6 6 5 5 5 4 3 3 4 3 2 3 2 1 1 1 2 2 3 4 2 3 3 3 2 2 4 3 5 9 10 10 11 12 12 12 12 11 11 11 11
7 8 7 7 6 5 5 4 4 4 5 4 3 3 4 3 2 1 1 1 2 3 3 3 2 2 2 3 4 4 4 4 5 10 11 12 13 13 13 12 12 12 12
8 8 8 7 7 6 6 6 6 5 5 5 5 4 4 3 3 2 2 2 2 3 3 3 3 2 3 4 4 4 4 4 4 8 10 10 11 11 12 12 13 12 12
7 7 7 7 7 6 6 6 6 5 6 6 6 6 5 5 4 3 3 3 2 2 3 3 3 3 3 3 3 3 3 3 4 6 7 7 8 10 11 11 12 12 13
8 7 7 7 7 7 7 6 6 6 6 6 6 6 6 6 6 6 4 5 4 3 2 2 3 3 3 3 1 2 3 3 3 4 5 5 6 8 9 11 12 12 13
9 7 7 6 6 6 7 7 7 7 6 6 6 6 7 8 9 7 5 5 5 3 3 3 3 3 3 3 3 2 3 3 4 3 3 4 3 4 5 8 10 12 13
7 7 8 8 8 7 10 13 9 7 7 7 6 6 6 8 10 12 12 11 9 7 6 4 4 5 6 5 4 3 3 2 4 3 2 4 3 5 6 5 10 13 14
8 8 8 8 8 9 12 13 14 8 7 7 7 6 6 7 8 6 9 11 12 14 12 8 7 8 7 6 4 4 5 5 6 4 2 5 4 6 6 7 12 14 14
8 8 8 8 8 9 13 13 13 9 7 7 8 8 7 7 7 7 6 7 8 9 11 9 9 10 9 8 7 7 6 5 6 4 4 5 5 6 7 6 11 14 14
7 7 6 8 8 8 11 12 11 5 6 7 7 7 7 7 10 10 7 7 8 9 11 14 15 14 15 14 10 4 4 4 6 5 4 4 5 5 5 6 8 12 13
7 7 7 7 8 7 9 11 11 4 6 6 6 6 10 10 10 9 7 7 9 10 8 7 8 11 12 12 14 10 8 6 6 5 5 5 5 3 4 5 5 5 6
Wind_Direction
152 150 148 144 144 139 136 131 118 99 66 62 98 111 126 148 163 162 192 195 192 190 188 190 192 192 189 188 189 189 188 186 182 178 177 177 175 174 173 171 168 165 163
150 147 145 142 140 146 146 141 137 131 107 66 51 95 137 154 170 176 186 199 198 197 197 198 201 201 199 198 198 198 197 194 190 188 187 186 185 184 184 183 179 177 174
148 144 145 146 150 143 131 108 92 81 78 59 12 337 157 173 176 178 181 192 206 209 207 207 208 208 208 207 206 206 206 202 196 194 195 194 193 192 192 192 190 187 186
147 142 146 152 150 134 123 118 100 88 64 60 342 314 310 206 189 188 185 194 201 211 217 217 214 214 216 216 215 213 212 208 203 201 202 202 202 200 199 199 198 195 194
144 144 149 154 142 124 122 136 95 108 100 52 291 313 330 260 218 195 190 195 200 204 209 225 224 223 224 223 223 220 217 212 209 210 210 209 209 207 205 205 204 202 201
146 141 144 146 135 121 120 112 97 78 110 126 359 17 340 317 259 185 189 168 172 191 196 203 218 235 231 228 227 226 224 219 216 218 218 217 216 212 211 210 209 208 208
147 143 141 135 133 132 142 133 108 71 35 52 60 15 354 0 9 236 146 128 126 140 157 176 181 202 248 240 235 233 233 230 225 224 223 223 222 218 217 215 214 213 212
148 147 139 135 134 125 114 104 98 90 23 60 106 83 20 355 347 360 12 140 135 115 138 162 172 187 209 191 237 231 231 237 236 230 226 225 226 225 223 222 222 221 218
145 142 141 134 129 126 131 127 117 117 96 19 94 133 133 206 308 335 347 5 29 89 138 157 160 178 182 171 194 227 212 227 238 242 241 237 237 235 230 228 228 229 226
138 139 138 132 131 128 135 139 123 126 123 91 25 59 138 155 140 345 334 340 347 14 289 152 156 169 160 166 177 179 179 198 228 245 252 253 250 250 246 242 240 237 235
139 140 139 133 134 134 138 133 124 125 126 134 122 87 68 64 91 128 286 323 337 323 301 259 223 209 177 165 169 185 182 193 218 238 248 258 267 273 270 264 259 252 246
138 144 139 138 143 143 148 148 141 136 131 122 116 113 125 122 133 130 153 267 303 305 314 305 269 233 199 181 193 187 193 204 221 233 244 255 263 271 276 277 273 266 260
164 170 150 148 151 154 155 148 143 144 141 132 135 131 133 151 157 144 134 160 316 309 329 326 293 246 202 188 209 201 208 214 226 236 243 251 262 270 275 278 279 280 274
178 169 158 157 160 160 156 147 144 155 145 143 142 140 134 144 142 148 151 142 76 337 335 313 318 309 259 215 231 219 234 238 243 246 249 252 256 260 264 269 271 275 277
173 167 162 160 163 160 155 145 147 162 153 155 155 150 145 159 133 139 142 146 144 157 291 294 309 313 303 254 242 227 238 250 251 252 254 257 259 259 259 260 262 265 268
169 164 165 164 166 166 163 155 157 169 165 177 173 162 170 179 151 137 139 139 145 158 215 264 263 274 286 279 247 238 246 257 259 261 261 261 261 261 259 257 257 258 260
168 170 172 171 173 176 174 169 177 176 180 192 192 187 203 194 185 188 159 150 158 154 198 268 267 277 283 285 290 276 266 259 263 265 267 267 265 264 261 258 256 256 257
171 172 172 175 182 185 182 182 191 187 189 199 207 200 213 204 203 205 191 196 198 186 184 243 278 282 273 272 273 279 278 269 261 269 271 274 273 271 268 262 258 257 257
171 173 173 180 188 188 189 193 194 196 199 205 206 203 211 200 213 214 209 213 219 209 185 209 258 266 274 280 294 295 292 293 284 280 281 281 282 282 275 268 263 260 259
175 180 182 186 190 192 194 198 198 203 207 212 210 208 207 201 208 210 213 216 215 217 214 220 251 268 272 283 281 285 300 295 289 292 292 290 292 295 286 279 273 266 262
186 185 185 193 196 196 203 201 201 205 208 217 222 219 217 213 211 207 207 208 204 211 217 225 245 263 269 274 260 249 263 282 282 264 279 285 291 292 289 284 278 269 265
188 185 193 198 204 212 213 208 202 208 209 213 223 228 230 227 228 225 224 214 200 201 210 216 231 237 251 247 247 242 248 275 287 269 246 274 270 275 273 265 264 265 264
192 194 201 203 210 219 216 214 211 205 209 215 219 224 235 233 226 230 237 236 228 224 213 208 222 233 239 235 231 247 241 236 245 246 230 272 266 268 268 271 268 268 267
197 200 205 207 211 221 217 217 215 210 215 221 221 219 225 237 234 224 232 242 243 241 232 225 225 236 236 233 221 231 240 251 260 255 204 254 266 262 270 266 267 267 268
198 202 203 206 214 226 220 219 213 209 222 231 231 228 225 234 242 235 230 242 255 259 251 236 232 237 240 239 230 227 240 244 266 265 207 219 256 263 265 263 264 263 265
204 204 207 208 212 224 224 216 206 208 227 239 243 242 236 236 244 240 230 235 250 258 257 258 246 248 248 250 241 225 225 232 246 261 231 207 243 246 279 265 256 257 261